Notices

What's New in latest Release from April 7th, 2021:

- Updated Glossary, including Speed of Maximum Gust, and Total Hourly Precipitation

- Updated national and regional climate services offices contacts and prices information

- Addition of station inventory lists for 1981-2010, 1971-2000, and 1961-1990 Normals.

If you haven't already, please take our survey and provide feedback about our website: https://eccc.sondage-survey.ca/f/LanguageSelection.aspx?s=442ca660-fcf1-47c0-95a9-59707d6fd709

Hourly Data Report for November 09, 2019

EUREKA CLIMATE
NUNAVUT
Current Station Operator: ECCC - MSC

79°59'21.000" N
85°56'02.000" W
10.00 m
2401199
71613
NEK

Download Data

Hourly Data (November 2019)
Hourly Data Report for November 9, 2019
TIME
LST
Temp Definition
°C
Dew Point Definition
°C
Rel Hum Definition
%
Precip. Amount Definition
mm

Wind Dir Definition
10's deg

Wind Spd Definition
km/h
Visibility Definition
km
Stn Press Definition
kPa
Hmdx Definition


Wind Chill Definition


Weather Definition


00:00 -32.6 -35.6 75 0.0 10 5   102.14   -39 LegendNANA
01:00 -33.5 -36.7 73 0.0 3 3   102.15   -37 LegendNANA
02:00 -33.1 -36.1 74 0.0 3 8   102.16   -42 LegendNANA
03:00 -33.6 -36.7 73 0.0 8 2   102.16   -36 LegendNANA
04:00 -32.9 -35.9 74 0.0 7 4   102.17   -38 LegendNANA
05:00 -33.2 -36.4 73 0.0 12 5   102.16   -39 LegendNANA
06:00 -33.8 -37.0 72 0.0 11 4   102.17   -39 LegendNANA
07:00 -33.7 -36.9 73 0.0 11 7   102.16   -42 LegendNANA
08:00 -35.2 -38.6 71 0.0 6 5   102.16   -42 LegendNANA
09:00 -33.6 -36.8 73 0.0 8 4   102.14   -38 LegendNANA
10:00 -34.5 -37.8 72 0.0 8 3   102.14   -38 LegendNANA
11:00 -33.9 -37.2 72 0.0 9 3   102.12   -38 LegendNANA
12:00 -33.7 -36.9 73 0.0 9 5   102.09   -40 LegendNANA
13:00 -34.6 -38.0 72 0.0 9 6   102.09   -42 LegendNANA
14:00 -34.8 -38.2 71 0.0 10 8   102.08   -44 LegendNANA
15:00 -34.5 -37.7 73 0.0 4 8   102.07   -43 LegendNANA
16:00 -35.1 -38.5 71 0.0 6 4   102.06   -40 LegendNANA
17:00 -34.4 -37.6 72 0.0 6 4   102.02   -39 LegendNANA
18:00 -35.5 -39.0 71 0.0 35 1   101.99   -37 LegendNANA
19:00 -35.2 -38.7 71 0.0 10 4   101.97   -40 LegendNANA
20:00 -35.7 -39.2 70 0.0 8 4   101.92   -41 LegendNANA
21:00 -35.2 -38.7 71 0.0 9 4   101.87   -40 LegendNANA
22:00 -34.8 -38.1 72 0.0 9 8   101.81   -44 LegendNANA
23:00 -35.3 -38.7 72 0.0 5 5   101.76   -42 LegendNANA

Notes on Data Quality.

Legend

  • E = Estimated
  • M = Missing
  • NA = Not Available*
  • [empty] = Indicates an unobserved value
Date modified: